Weather in Berezniki

Russia / Perm Krai     56°58′58″N   55°33′11″E
temp.,
°C
wind,
m/s
gust,
m/s
humid.,
%
clouds,
%
prec.,
mm/h
press.,
hPa
HPBL,
m
28 february, sun
sun2823:00−14e5109399 0.6 1005355
02:00−15ene489499 0.2 1005312
05:00−15ene41094100 0.4 1005363
08:00−14ne3994100 0.3 1005407
11:00−13ene5991100 0.6 1005481
14:00−11ne4889100 0.3 1006562
17:00−11ne5890100 0.4 1007594
20:00−13nne4894100 0.2 1010389
1 march, mon
mon123:00−15ne379299 0.3 1012253
02:00−16nne359481 0.0 1013144
05:00−17nne369683 0.1 1015195
08:00−18nne359685 0.1 1016101
11:00−16nne349182 0.1 1018316
14:00−12nne228298 0.0 1017482
17:00−11nnw228699 0.1 1018504
20:00−17wnw1296100 0.0 101720
2 march, tue
tue223:00−19sw229884 0.1 101720
02:00−20ssw339945 0.0 101564
05:00−20s499968 0.0 1013242
08:00−20s61295100 0.0 1010327
11:00−17s71393100 0.1 1008363
14:00−14s71293100 0.5 1005469
17:00−13s71292100 1.2 1003561
20:00−11s51294100 0.6 1002601
3 march, wed
wed323:00−11s51193100 1.1 1001503
02:00−11s41094100 0.7 999448
05:00−10sse4795100 1.4 998337
08:00−11se2496100 0.9 997188
11:00−8nne0091100 1.2 997213
14:00−6nnw2386100 0.1 998434
17:00−5nw3591100 0.1 998528
20:00−7wnw239798 0.3 99984
4 march, thu
thu423:00−9nw4119297 0.4 1002356
02:00−11nw369680 0.1 1002131
05:00−14wnw239772 0.1 100442
08:00−12wnw379699 0.4 1005212
11:00−10w3693100 0.4 1005317
14:00−8wsw478889 0.0 1005553
17:00−7sw588793 0.1 1004800
20:00−8ssw61393100 0.1 1002539